Погода в Бунькове

Россия / Ивановская область     57°03′55″N   40°42′22″E
темп.,
°C
ветер,
м/с
пор.,
м/с
влажн.,
%
обл.,
%
осадки,
мм/ч
давл.,
гПа
погр.,
м
12 августа, пт
пт1200:00+14зюз1267100 0.0 102511
03:00+13юз22765 0.0 102511
06:00+14з247795 0.0 102581
09:00+20з3454100 0.0 1025436
12:00+24з3543100 0.0 10241259
15:00+25з453896 0.0 10221553
18:00+24зсз254914 0.0 1022254
21:00+17з226840 0.0 102237
13 августа, сб
сб1300:00+16зсз23757 0.0 102357
03:00+15зсз2281100 0.0 102332
06:00+16зсз1180100 0.0 102317
09:00+22зсз1158100 0.0 1023379
12:00+26зюз1145100 0.0 10221363
15:00+26зсз1142100 0.0 10211754
18:00+24ссз1156100 0.0 102114
21:00+20зюз1166100 0.0 102111
14 августа, вс
вс1400:00+18зсз117599 0.0 102111
03:00+17зсз1179100 0.0 102111
06:00+17сз117934 0.0 102111
09:00+24св005659 0.0 1021469
12:00+28юв12425 0.0 10201781
15:00+28юв223724 0.0 10202330
18:00+26ю24508 0.0 1019178
21:00+20ююв22669 0.0 102042
15 августа, пн
пн1500:00+19ююв226925 0.0 102022
03:00+17ю11800 0.0 102111
06:00+18ю11772 0.0 102111
09:00+24юв22540 0.0 1021451
12:00+28юв23380 0.0 10212242
15:00+26в234597 0.0 1021478
18:00+25в375316 0.0 1021338
21:00+20вюв25665 0.0 102281
16 августа, вт
вт1600:00+18вюв24775 0.0 102371
03:00+17вюв25825 0.0 102480
06:00+17вюв25815 0.0 1025105
09:00+24вюв355594 0.0 1025489
12:00+27вюв454387 0.0 10241910
15:00+29вюв443761 0.0 10232433
18:00+26вюв48455 0.0 1023589
21:00+20вюв311645 0.0 1024233